Regional Weather Roundup
Issued by NWS Sioux Falls, SD

Home | Current Version | Previous Version | Graphics & Text | Print | Product List | Glossary On
Versions: 1 2 3 4 5 6 7 8 9 10 11 12 13 14 15 16 17 18 19 20 21 22 23 24 25 26 27 28 29 30 31 32 33 34 35 36 37 38 39 40 41 42 43 44 45 46 47 48 49 50
398
ASUS43 KFSD 160610
RWRFSD

WEATHER ROUNDUP FOR SE SOUTH DAKOTA/SW MINNESOTA/NW IOWA
NATIONAL WEATHER SERVICE SIOUX FALLS SD
1200 AM CST MON JAN 16 2017

NOTE: "FAIR" INDICATES FEW OR NO CLOUDS BELOW 12,000 FEET WITH NO
SIGNIFICANT WEATHER AND OR OBSTRUCTIONS TO VISIBILITY.


SDZ038>040-050-052>070-160700-
SOUTHEAST SOUTH DAKOTA

CITY           SKY/WX    TMP DP  RH WIND       PRES   REMARKS
BROOKINGS      CLOUDY    11   8  88 CALM      30.12S
CHAMBERLAIN    CLOUDY    20  16  84 N6        30.09S WCI  12
6HR MIN TEMP:  17; 6HR MAX TEMP:  24;

HURON          CLOUDY     9   7  92 CALM      30.12S
6HR MIN TEMP:   7; 6HR MAX TEMP:  19;

MADISON          N/A     19  19 100 CALM        N/A
MITCHELL       CLOUDY    21  17  84 E3        30.13S
6HR MIN TEMP:  21; 6HR MAX TEMP:  32;

SIOUX FALLS    CLOUDY    23  18  81 CALM      30.13S
6HR MIN TEMP:  21; 6HR MAX TEMP:  32;

WINNER         FAIR      23  19  85 NW5       30.06F WCI  17
YANKTON        CLOUDY    28  19  69 SE3       30.11F
$$

MNZ071-072-080-081-089-090-097-098-160700-
SOUTHWEST MINNESOTA

CITY           SKY/WX    TMP DP  RH WIND       PRES   REMARKS
FAIRMONT       CLOUDY    22  19  89 S5        30.19S WCI  16
JACKSON        CLOUDY    23  19  86 S5        30.16S WCI  17
LUVERNE        CLOUDY    19  14  79 CALM      30.15S
MARSHALL       PTCLDY    19  14  81 S7        30.15S WCI  10
6HR MIN TEMP:  15; 6HR MAX TEMP:  28;

MONTEVIDEO     CLOUDY    19  18  93 SW6       30.17S WCI  11
PIPESTONE      CLOUDY    21  16  79 SW3       30.12F
REDWOOD FALLS  CLOUDY    20  15  81 S9        30.16F WCI   9
TRACY          CLOUDY    26  17  67 S8        30.15S WCI  18
WINDOM         CLOUDY    23  19  86 CALM      30.16R
WORTHINGTON    CLOUDY    24  20  84 S7        30.15S WCI  16
$$

IAZ001>003-012>014-020>022-031-032-NEZ013-014-SDZ071-160700-
NORTHWEST IOWA

CITY           SKY/WX    TMP DP  RH WIND       PRES   REMARKS
CHEROKEE       MIX PCPN  29  28  95 SE3       30.15F
DENISON        CLOUDY    32  32 100 E5        30.13S WCI  27
ESTHERVILLE    CLOUDY    23  21  92 SE5       30.16F WCI  17
LE MARS        CLOUDY    30  25  80 SE5       30.15F WCI  25
ORANGE CITY    CLOUDY    28  25  86 SE3       30.14S
SHELDON        CLOUDY    25  23  93 SE5       30.13F WCI  19
SIOUX CITY     CLOUDY    32  29  88 E3        30.15F
6HR MIN TEMP:  31; 6HR MAX TEMP:  33; 6HR PCP: TRACE;

SPENCER        CLOUDY    24  20  84 CALM      30.16F
6HR MIN TEMP:  18; 6HR MAX TEMP:  25;

STORM LAKE     CLOUDY    28  27  93 E6        30.15S FOG     WCI  22
$$

ABBREVIATIONS USED IN REMARKS
   TC - TEMPERATURE IN CELSIUS
  WCI - WIND CHILL INDEX
   HX - HEAT INDEX
  VSB - VISIBILITY





USA.gov is the U.S. government's official web portal to all federal, state and local government web resources and services.